This is the latest recevied weather packets stored in our database for station/object KG4YZY-1. If no packets are shown the sender has not sent any weather packets the latest 10 day(s).
| Time | Temp. | Humidity | Pressure | Rain* | Wind** | Luminosity | Snow |
|---|---|---|---|---|---|---|---|
| 1787421003 | 31.11° C | 73% | 1018.1 hPa | 0 mm | - | - | - |
| 1787420704 | 31.11° C | 69% | 1018.1 hPa | 0 mm | - | - | - |
| 1787420404 | 31.11° C | 65% | 1018.1 hPa | 0 mm | - | - | - |
| 1787420104 | 31.11° C | 66% | 1018.2 hPa | 0 mm | - | - | - |
| 1787419804 | 31.11° C | 71% | 1018.2 hPa | 0 mm | - | - | - |
| 1787419504 | 31.11° C | 72% | 1018.3 hPa | 0 mm | - | - | - |
| 1787419204 | 31.11° C | 74% | 1018.4 hPa | 0 mm | - | - | - |
| 1787418904 | 31.11° C | 74% | 1018.5 hPa | 0 mm | - | - | - |
| 1787418604 | 31.11° C | 74% | 1018.6 hPa | 0 mm | - | - | - |
| 1787418304 | 31.11° C | 74% | 1018.7 hPa | 0 mm | - | - | - |
| 1787417704 | 31.11° C | 72% | 1018.8 hPa | 0 mm | - | - | - |
| 1787417403 | 31.67° C | 70% | 1018.7 hPa | 0 mm | - | - | - |
| 1787417103 | 32.22° C | 69% | 1018.7 hPa | 0 mm | - | - | - |
| 1787416803 | 32.22° C | 68% | 1018.6 hPa | 0 mm | - | - | - |
| 1787416503 | 32.22° C | 67% | 1018.6 hPa | 0 mm | - | - | - |
| 1787416203 | 32.22° C | 69% | 1018.6 hPa | 0 mm | - | - | - |
| 1787415904 | 31.67° C | 69% | 1018.6 hPa | 0 mm | - | - | - |
| 1787415604 | 31.11° C | 71% | 1018.6 hPa | 0 mm | - | - | - |
| 1787415304 | 31.11° C | 72% | 1018.8 hPa | 0 mm | - | - | - |
| 1787415005 | 30.56° C | 72% | 1018.9 hPa | 0 mm | - | - | - |
| 1787414703 | 30.56° C | 75% | 1018.8 hPa | 0 mm | - | - | - |
| 1787414403 | 30.56° C | 75% | 1018.9 hPa | 0 mm | - | - | - |
| 1787414104 | 30.56° C | 75% | 1019 hPa | 0 mm | - | - | - |
| 1787413804 | 30° C | 76% | 1019.1 hPa | 0 mm | - | - | - |
| 1787413503 | 30° C | 76% | 1019.1 hPa | 0 mm | - | - | - |
* Rain latest hour (hover to see other rain measurements)
** Current wind speed in m/s (hover to see current wind gust speed)